This demonstration page uses our WeatherBlox Daily Observations layout. Learn more.

Left ArrowRight Arrow

38.88101, -77.10428

Hourly Observations for May 10, 2022

Temp ( °F °C ) Dew Point ( °F °C ) Humidity (%) Winds ( mph kmh ) Pressure ( in mb ) Visibility ( mi km ) Precip ( " mm )
12:52 am 00:52 Partly Cloudy 53 11.7 40 4.4 61 61 NNE 3 6 30.26 1025 10 16 0.00 0.00
1:52 am 01:52 Partly Cloudy 53 11.7 42 5.6 66 66 N 6 9 30.25 1024 10 16 0.00 0.00
2:52 am 02:52 Mostly Clear 51 10.6 40 4.4 66 66 N 5 7 30.24 1024 10 16 0.00 0.00
3:52 am 03:52 Mostly Cloudy 52 11.1 36 2.2 55 55 NNE 8 13 30.25 1024 10 16 0.00 0.00
4:52 am 04:52 Mostly Cloudy 51 10.6 31 -0.6 46 46 N 10 17 30.26 1025 10 16 0.00 0.00
5:52 am 05:52 Mostly Clear 51 10.6 29 -1.7 43 43 N 10 17 30.29 1026 10 16 0.00 0.00
6:52 am 06:52 Mostly Sunny 54 12.2 25 -3.9 33 33 N 13 20 30.30 1026 10 16 0.00 0.00
7:52 am 07:52 Mostly Sunny 57 13.9 22 -5.6 26 26 N 16 26 30.33 1027 10 16 0.00 0.00
8:52 am 08:52 Mostly Sunny 60 15.6 26 -3.3 27 27 NNE 15 24 30.34 1027 10 16 0.00 0.00
9:52 am 09:52 Sunny 63 17.2 29 -1.7 28 28 NNE 18 30 30.35 1028 10 16 0.00 0.00
10:52 am 10:52 Mostly Sunny 66 18.9 31 -0.6 27 27 NNE 14 22 30.34 1028 10 16 0.00 0.00
11:52 am 11:52 Mostly Sunny 68 20 36 2.2 31 31 NE 15 24 30.34 1027 10 16 0.00 0.00
12:52 pm 12:52 Mostly Sunny 71 21.7 38 3.3 30 30 NE 13 20 30.32 1027 10 16 0.00 0.00
1:52 pm 13:52 Mostly Sunny 73 22.8 38 3.3 28 28 NNE 16 26 30.29 1026 10 16 0.00 0.00
2:52 pm 14:52 Mostly Sunny 73 22.8 40 4.4 30 30 NNE 12 19 30.28 1025 10 16 0.00 0.00
3:52 pm 15:52 Mostly Sunny 72 22.2 42 5.6 34 34 ENE 15 24 30.25 1025 10 16 0.00 0.00
4:52 pm 16:52 Partly Cloudy 72 22.2 41 5 33 33 ENE 16 26 30.25 1024 10 16 0.00 0.00
5:52 pm 17:52 Partly Cloudy 71 21.7 38 3.3 30 30 NE 16 26 30.25 1025 10 16 0.00 0.00
6:52 pm 18:52 Partly Cloudy 70 21.1 37 2.8 30 30 ENE 14 22 30.26 1025 10 16 0.00 0.00
7:52 pm 19:52 Partly Cloudy 68 20 35 1.7 30 30 ENE 9 15 30.26 1025 10 16 0.00 0.00
8:52 pm 20:52 Mostly Clear 65 18.3 36 2.2 34 34 NE 6 9 30.28 1025 10 16 0.00 0.00
9:52 pm 21:52 Mostly Clear 63 17.2 39 3.9 41 41 SE 5 7 30.29 1026 10 16 0.00 0.00
10:52 pm 22:52 Mostly Clear 62 16.7 38 3.3 41 41 Calm 30.30 1026 10 16 0.00 0.00
11:52 pm 23:52 Mostly Clear 59 15 41 5 51 51 Calm 30.30 1026 10 16 0.00 0.00

Powered by AerisWeather